Location: Bay Ridge
(40.6340°N, 74.0146°W)
Time: 22:16:57
(UTC+00:00)

ATLAS 2AS CENTAUR R/B - Pass Details

Date: 15 November 2019
Orbit: 926 x 1286 km, 63.7° (Epoch: 09 December)

Event Time Altitude Azimuth Distance (km) Brightness Sun altitude
Exits shadow 10:20:25 - 329° (NNW) 3,617 5.1 -15.6°
Reaches altitude 10° 10:21:41 10° 331° (NNW) 3,187 4.8 -15.4°
Maximum altitude 10:29:15 61° 51° (NE) 1,295 3.3 -14.0°
Drops below altitude 10° 10:36:09 10° 131° (SE) 2,919 6.0 -12.7°
Sets 10:38:44 0° 135° (SE) 3,820 6.7 -12.2°
